{"data":{"norad_id":14781,"epoch":"2026-05-24T20:42:47.902752Z","epoch_age_seconds":87127,"freshness":"FRESH","line1":"1 14781U 84021B   26144.86305443  .00001020  00000+0  10958-3 0  9994","line2":"2 14781  97.8043 110.7018 0006077 259.9463 100.1069 14.90717918253655","mean_motion":14.90717918,"eccentricity":0.0006077,"inclination_deg":97.8043,"raan_deg":110.7018,"arg_perigee_deg":259.9463,"mean_anomaly_deg":100.1069,"bstar":0.00010958,"rev_number":25365,"period_min":96.597752171112,"perigee_km":591.45773955915,"apogee_km":599.93373586857,"semimajor_km":6973.8327377139,"source":"CELESTRAK","updated_at":"2026-05-25T13:38:23.251815Z"}}